Location: Sungai Bunut
(2.6333°N, 113.7333°E)
Time: 21:40:11
(UTC+00:00)

Envisat - Visible Passes

Search period start: 21 January 2022 00:00
Search period end: 31 January 2022 00:00
Orbit: 764 x 766 km, 98.2° (Epoch: 21 January)

Date Brightness Start Highest point End Pass type
(mag) Time Alt. Az. Time Alt. Az. Time Alt. Az.
21 Jan 2.8 21:00:36 10° N 21:05:40 81° WNW 21:10:45 10° SSW visible
22 Jan 4.5 20:24:18 10° NE 20:28:53 35° ESE 20:33:28 10° SSE visible
22 Jan 4.6 22:05:13 10° NW 22:07:36 13° WNW 22:09:59 10° WSW visible
23 Jan 6.0 19:50:14 10° E 19:52:07 12° ESE 19:54:01 10° SE visible
23 Jan 3.4 21:26:12 10° N 21:30:52 38° WNW 21:35:33 10° SW visible
24 Jan 3.1 20:49:03 10° NNE 20:54:06 74° ESE 20:59:09 10° S visible
25 Jan 5.0 20:13:12 10° NE 20:17:19 25° ESE 20:21:27 10° SSE visible
25 Jan 4.3 21:52:36 10° NNW 21:56:03 19° WNW 21:59:31 10° WSW visible
26 Jan 3.0 21:14:23 10° N 21:19:18 53° WNW 21:24:15 10° SSW visible
27 Jan 3.7 20:37:37 10° NNE 20:42:32 53° ESE 20:47:28 10° S visible
28 Jan 5.5 20:02:18 10° ENE 20:05:46 19° ESE 20:09:14 10° SE visible
28 Jan 3.9 21:40:23 10° NNW 21:44:30 25° WNW 21:48:38 10° SW visible
29 Jan 2.8 21:02:42 10° N 21:07:45 74° WNW 21:12:48 10° SSW visible
30 Jan 4.3 20:26:18 10° NE 20:30:58 38° ESE 20:35:39 10° S visible
30 Jan 4.6 22:07:45 10° NW 22:09:40 12° WNW 22:11:36 10° W visible
